Location: Ergnies
(50.0854°N, 2.0375°E)
Time: 14:58:56
(UTC+00:00)

Resurs 01 Rocket - Pass Details

Date: 14 January 2026
Orbit: 628 x 635 km, 97.7° (Epoch: 18 February)

Event Time Altitude Azimuth Distance (km) Brightness Sun altitude
Rises 06:52:34 0° 24° (NNE) 2,934 5.0 -8.3°
Reaches altitude 10° 06:55:11 10° 39° (NE) 2,022 4.4 -7.9°
Maximum altitude 06:58:41 23° 92° (E) 1,359 4.3 -7.4°
Drops below altitude 10° 07:02:09 10° 145° (SE) 2,012 5.3 -6.9°
Sets 07:04:44 0° 160° (SSE) 2,916 5.8 -6.5°
